Location: Naalehu
(19.0640°N, 155.5860°W)
Time: 14:49:05
(UTC-10:00)

Envisat - Visible Passes

Search period start: 19 July 2019 00:00
Search period end: 29 July 2019 00:00
Orbit: 764 x 766 km, 98.1° (Epoch: 19 July)

Date Brightness Start Highest point End Pass type
(mag) Time Alt. Az. Time Alt. Az. Time Alt. Az.
19 Jul 5.6 19:58:24 10° SW 20:01:47 18° W 20:05:11 10° NW visible
20 Jul 4.1 19:20:06 10° S 19:24:59 48° W 19:29:52 10° NNW visible
22 Jul 5.3 19:46:29 10° SSW 19:50:31 24° W 19:54:34 10° NW visible
24 Jul 5.9 20:14:25 10° WSW 20:16:06 12° W 20:17:48 10° WNW visible
25 Jul 4.8 19:34:46 10° SSW 19:39:16 32° W 19:43:46 10° NW visible
27 Jul 5.7 20:01:46 10° SW 20:04:50 16° W 20:07:53 10° WNW visible
28 Jul 4.3 19:23:13 10° S 19:28:01 43° W 19:32:49 10° NNW visible
